User: anonymous   Login
Location: Fort Frances
(48.6170°N, 93.4170°W)
Time: 13:49:13
(UTC-05:00)
Language:

CZ-2C R/B - Orbit

View from above orbital plane
View from above orbital plane
View from above satellite
View from above satellite

Ground track
Ground track

The orbit data is extracted from the following two-line orbital elements,

1 36089U 09061B   14296.10221872  .00000559  00000-0  15157-3 0  4656
2 36089 098.0943 323.9965 0083610 145.2607 278.4015 14.49245690261461
Epoch (UTC): 23 October 2014 02:27:11
Eccentricity: 0.0083610
inclination: 98.0943°
perigee height: 669 km
apogee height: 787 km
right ascension of ascending node: 323.9965°
argument of perigee: 145.2607°
revolutions per day: 14.49245690
mean anomaly at epoch: 278.4015°
orbit number at epoch: 26146

The dashed part of the orbit path shows where the satellite is in the earth's shadow,  

DLR